Time,TemperatureF,DewpointF,PressureIn,WindDirection,WindDirectionDegrees,WindSpeedMPH,WindSpeedGustMPH,Humidity,HourlyPrecipIn,Conditions,Clouds,dailyrainin,SoftwareType,DateUTC
2013-06-26 00:01:00,65.8,61.9,29.85,North,353,0.0,0.0,87,0.00,,---,0.00,VWS V12.08,2013-06-26 07:01:00,
2013-06-26 00:02:00,65.8,61.9,29.85,North,353,0.0,0.0,87,0.00,,---,0.00,VWS V12.08,2013-06-26 07:02:00,
2013-06-26 00:03:00,65.8,61.9,29.85,North,353,0.0,0.0,87,0.00,,---,0.00,VWS V12.08,2013-06-26 07:03:00,
2013-06-26 00:04:00,66.0,61.4,29.85,North,353,0.0,3.6,85,0.00,,---,0.00,VWS V12.08,2013-06-26 07:04:00,
2013-06-26 00:05:00,65.8,62.2,29.85,North,353,0.0,0.0,88,0.00,,---,0.00,VWS V12.08,2013-06-26 07:05:00,
2013-06-26 00:06:00,65.8,62.2,29.85,North,353,0.0,0.0,88,0.00,,---,0.00,VWS V12.08,2013-06-26 07:06:00,
2013-06-26 00:07:00,65.8,62.2,29.85,North,353,0.0,0.0,88,0.00,,---,0.00,VWS V12.08,2013-06-26 07:07:00,
2013-06-26 00:08:00,65.8,62.2,29.85,North,353,0.0,0.0,88,0.00,,---,0.00,VWS V12.08,2013-06-26 07:08:00,
2013-06-26 00:09:00,66.0,61.7,29.85,North,353,0.0,3.6,86,0.00,,---,0.00,VWS V12.08,2013-06-26 07:09:00,
2013-06-26 00:10:00,65.8,62.2,29.85,North,353,0.0,0.0,88,0.00,,---,0.00,VWS V12.08,2013-06-26 07:10:00,
2013-06-26 00:11:00,65.8,62.2,29.85,North,353,0.0,0.0,88,0.00,,---,0.00,VWS V12.08,2013-06-26 07:11:00,
2013-06-26 00:12:00,65.8,62.2,29.85,North,353,0.0,0.0,88,0.00,,---,0.00,VWS V12.08,2013-06-26 07:12:00,
2013-06-26 00:13:00,65.8,62.2,29.85,North,353,0.0,0.0,88,0.00,,---,0.00,VWS V12.08,2013-06-26 07:13:00,
2013-06-26 00:14:00,66.0,61.7,29.85,North,353,0.0,3.6,86,0.00,,---,0.00,VWS V12.08,2013-06-26 07:14:00,
2013-06-26 00:19:00,66.0,61.7,29.85,North,353,0.0,0.0,86,0.00,,---,0.00,VWS V12.08,2013-06-26 07:19:00,
2013-06-26 00:24:00,66.0,61.7,29.85,North,353,0.0,0.0,86,0.00,,---,0.00,VWS V12.08,2013-06-26 07:24:00,
2013-06-26 00:27:00,66.2,62.5,29.85,North,353,0.0,0.0,88,0.00,,---,0.00,VWS V12.08,2013-06-26 07:27:00,
2013-06-26 00:28:00,66.2,62.5,29.85,North,353,0.0,0.0,88,0.00,,---,0.00,VWS V12.08,2013-06-26 07:28:00,
2013-06-26 00:29:00,66.0,61.7,29.85,North,353,0.0,0.0,86,0.00,,---,0.00,VWS V12.08,2013-06-26 07:29:00,
2013-06-26 00:30:00,66.2,62.5,29.85,North,353,0.0,0.0,88,0.00,,---,0.00,VWS V12.08,2013-06-26 07:30:00,
2013-06-26 00:31:00,66.2,62.5,29.85,North,353,0.0,0.0,88,0.00,,---,0.00,VWS V12.08,2013-06-26 07:31:00,
2013-06-26 00:32:00,66.2,62.5,29.85,North,353,0.0,0.0,88,0.00,,---,0.00,VWS V12.08,2013-06-26 07:32:00,
2013-06-26 00:33:00,66.2,62.5,29.85,North,353,0.0,0.0,88,0.00,,---,0.00,VWS V12.08,2013-06-26 07:33:00,
2013-06-26 00:34:00,66.0,61.7,29.85,North,353,0.0,0.0,86,0.00,,---,0.00,VWS V12.08,2013-06-26 07:34:00,
2013-06-26 00:35:00,66.2,62.5,29.85,North,353,0.0,0.0,88,0.00,,---,0.00,VWS V12.08,2013-06-26 07:35:00,
2013-06-26 00:36:00,66.2,62.5,29.85,North,353,0.0,0.0,88,0.00,,---,0.00,VWS V12.08,2013-06-26 07:36:00,
2013-06-26 00:39:00,65.8,61.9,29.85,North,353,0.0,0.0,87,0.00,,---,0.00,VWS V12.08,2013-06-26 07:39:00,
2013-06-26 00:44:00,65.8,62.2,29.85,North,353,0.0,0.0,88,0.00,,---,0.00,VWS V12.08,2013-06-26 07:44:00,
2013-06-26 00:49:00,65.8,62.2,29.85,North,353,0.0,0.0,88,0.00,,---,0.00,VWS V12.08,2013-06-26 07:49:00,
2013-06-26 00:54:00,65.8,62.2,29.85,North,353,0.0,0.0,88,0.00,,---,0.00,VWS V12.08,2013-06-26 07:54:00,
2013-06-26 00:59:00,66.2,62.5,29.85,North,353,0.0,0.0,88,0.00,,---,0.00,VWS V12.08,2013-06-26 07:59:00,
2013-06-26 01:00:00,66.2,62.9,29.85,North,353,0.0,0.0,89,0.00,,---,0.00,VWS V12.08,2013-06-26 08:00:00,
2013-06-26 01:01:00,66.2,62.9,29.85,North,353,0.0,0.0,89,0.00,,---,0.00,VWS V12.08,2013-06-26 08:01:00,
2013-06-26 01:02:00,66.2,62.9,29.85,North,353,0.0,0.0,89,0.00,,---,0.00,VWS V12.08,2013-06-26 08:02:00,
2013-06-26 01:03:00,66.2,62.9,29.85,North,353,0.0,0.0,89,0.00,,---,0.00,VWS V12.08,2013-06-26 08:03:00,
2013-06-26 01:04:00,66.2,62.5,29.85,North,353,0.0,0.0,88,0.00,,---,0.00,VWS V12.08,2013-06-26 08:04:00,
2013-06-26 01:09:00,66.2,62.5,29.85,North,353,0.0,0.0,88,0.00,,---,0.00,VWS V12.08,2013-06-26 08:09:00,
2013-06-26 01:14:00,66.2,62.5,29.85,North,353,0.0,0.0,88,0.00,,---,0.00,VWS V12.08,2013-06-26 08:14:00,
2013-06-26 01:19:00,66.2,62.9,29.85,North,353,0.0,0.0,89,0.00,,---,0.00,VWS V12.08,2013-06-26 08:19:00,
2013-06-26 01:22:00,66.0,62.7,29.85,North,353,0.0,0.0,89,0.00,,---,0.00,VWS V12.08,2013-06-26 08:22:00,
2013-06-26 01:23:00,66.0,62.7,29.85,North,353,0.0,0.0,89,0.00,,---,0.00,VWS V12.08,2013-06-26 08:23:00,
2013-06-26 01:24:00,66.2,62.9,29.85,North,353,0.0,0.0,89,0.00,,---,0.00,VWS V12.08,2013-06-26 08:24:00,
2013-06-26 01:25:00,66.0,62.7,29.85,North,353,0.0,0.0,89,0.00,,---,0.00,VWS V12.08,2013-06-26 08:25:00,
2013-06-26 01:26:00,66.0,62.7,29.85,North,353,0.0,0.0,89,0.00,,---,0.00,VWS V12.08,2013-06-26 08:26:00,
2013-06-26 01:29:00,66.2,62.9,29.85,North,353,0.0,0.0,89,0.00,,---,0.00,VWS V12.08,2013-06-26 08:29:00,
2013-06-26 01:34:00,66.2,62.9,29.85,North,353,0.0,0.0,89,0.00,,---,0.00,VWS V12.08,2013-06-26 08:34:00,
2013-06-26 01:38:00,65.8,62.5,29.85,North,353,0.0,0.0,89,0.00,,---,0.00,VWS V12.08,2013-06-26 08:38:00,
2013-06-26 01:39:00,66.2,62.9,29.85,North,353,0.0,0.0,89,0.00,,---,0.00,VWS V12.08,2013-06-26 08:39:00,
2013-06-26 01:40:00,65.8,62.5,29.85,North,353,0.0,0.0,89,0.00,,---,0.00,VWS V12.08,2013-06-26 08:40:00,
2013-06-26 01:41:00,65.8,62.5,29.85,North,353,0.0,0.0,89,0.00,,---,0.00,VWS V12.08,2013-06-26 08:41:00,
2013-06-26 01:42:00,65.7,62.3,29.85,North,353,0.0,0.0,89,0.00,,---,0.00,VWS V12.08,2013-06-26 08:42:00,
2013-06-26 01:44:00,66.0,62.7,29.85,North,353,0.0,0.0,89,0.00,,---,0.00,VWS V12.08,2013-06-26 08:44:00,
2013-06-26 01:49:00,66.0,62.7,29.85,North,353,0.0,0.0,89,0.00,,---,0.00,VWS V12.08,2013-06-26 08:49:00,
2013-06-26 01:54:00,66.0,62.7,29.85,North,353,0.0,0.0,89,0.00,,---,0.00,VWS V12.08,2013-06-26 08:54:00,
2013-06-26 01:59:00,66.0,62.7,29.85,North,353,0.0,0.0,89,0.00,,---,0.00,VWS V12.08,2013-06-26 08:59:00,
2013-06-26 02:00:00,65.5,62.5,29.85,North,353,0.0,0.0,90,0.00,,---,0.00,VWS V12.08,2013-06-26 09:00:00,
2013-06-26 02:01:00,65.5,62.5,29.85,North,353,0.0,0.0,90,0.00,,---,0.00,VWS V12.08,2013-06-26 09:01:00,
2013-06-26 02:02:00,65.5,62.5,29.85,North,353,0.0,0.0,90,0.00,,---,0.00,VWS V12.08,2013-06-26 09:02:00,
2013-06-26 02:03:00,65.5,62.5,29.85,North,353,0.0,0.0,90,0.00,,---,0.00,VWS V12.08,2013-06-26 09:03:00,
2013-06-26 02:04:00,66.0,62.7,29.85,North,353,0.0,0.0,89,0.00,,---,0.00,VWS V12.08,2013-06-26 09:04:00,
2013-06-26 02:09:00,65.8,62.5,29.85,North,353,0.0,0.0,89,0.00,,---,0.00,VWS V12.08,2013-06-26 09:09:00,
2013-06-26 02:14:00,65.8,62.5,29.85,North,353,0.0,0.0,89,0.00,,---,0.00,VWS V12.08,2013-06-26 09:14:00,
2013-06-26 02:19:00,65.8,62.5,29.85,North,353,0.0,0.0,89,0.00,,---,0.00,VWS V12.08,2013-06-26 09:19:00,
2013-06-26 02:20:00,65.5,62.5,29.85,North,353,0.0,0.0,90,0.00,,---,0.00,VWS V12.08,2013-06-26 09:20:00,
2013-06-26 02:21:00,65.5,62.5,29.85,North,353,0.0,0.0,90,0.00,,---,0.00,VWS V12.08,2013-06-26 09:21:00,
2013-06-26 02:22:00,65.3,62.3,29.85,NE,47,2.7,2.7,90,0.00,,---,0.00,VWS V12.08,2013-06-26 09:22:00,
2013-06-26 02:23:00,65.3,62.3,29.85,NE,47,2.2,3.1,90,0.00,,---,0.00,VWS V12.08,2013-06-26 09:23:00,
2013-06-26 02:24:00,65.7,62.3,29.85,North,353,0.0,0.0,89,0.00,,---,0.00,VWS V12.08,2013-06-26 09:24:00,
2013-06-26 02:29:00,65.7,62.7,29.85,North,353,0.0,0.0,90,0.00,,---,0.00,VWS V12.08,2013-06-26 09:29:00,
2013-06-26 02:34:00,65.5,62.5,29.85,North,353,0.0,0.0,90,0.00,,---,0.00,VWS V12.08,2013-06-26 09:34:00,
2013-06-26 02:41:00,65.5,62.5,29.85,North,353,0.0,0.0,90,0.00,,---,0.00,VWS V12.08,2013-06-26 09:41:00,
2013-06-26 02:46:00,65.5,62.5,29.85,North,353,0.0,0.0,90,0.00,,---,0.00,VWS V12.08,2013-06-26 09:46:00,
2013-06-26 02:51:00,65.5,62.5,29.85,North,353,0.0,0.0,90,0.00,,---,0.00,VWS V12.08,2013-06-26 09:51:00,
2013-06-26 02:56:00,65.5,62.5,29.85,North,353,0.0,0.0,90,0.00,,---,0.00,VWS V12.08,2013-06-26 09:56:00,
2013-06-26 03:00:00,64.0,61.0,29.85,East,94,2.7,4.9,90,0.00,,---,0.00,VWS V12.08,2013-06-26 10:00:00,
2013-06-26 03:01:00,65.3,62.3,29.85,NE,47,0.0,3.1,90,0.00,,---,0.00,VWS V12.08,2013-06-26 10:01:00,
2013-06-26 03:02:00,64.0,61.4,29.85,East,91,2.7,4.0,91,0.00,,---,0.00,VWS V12.08,2013-06-26 10:02:00,
2013-06-26 03:03:00,64.0,61.4,29.85,East,91,3.1,4.0,91,0.00,,---,0.00,VWS V12.08,2013-06-26 10:03:00,
2013-06-26 03:04:00,64.0,61.4,29.85,East,91,2.7,4.0,91,0.00,,---,0.00,VWS V12.08,2013-06-26 10:04:00,
2013-06-26 03:05:00,64.0,61.4,29.85,East,91,2.7,4.0,91,0.00,,---,0.00,VWS V12.08,2013-06-26 10:05:00,
2013-06-26 03:06:00,65.1,62.1,29.85,ENE,71,2.2,3.6,90,0.00,,---,0.00,VWS V12.08,2013-06-26 10:06:00,
2013-06-26 03:11:00,64.9,61.9,29.85,ENE,71,2.2,4.0,90,0.00,,---,0.00,VWS V12.08,2013-06-26 10:11:00,
2013-06-26 03:16:00,64.8,61.8,29.85,ENE,71,2.7,4.0,90,0.00,,---,0.00,VWS V12.08,2013-06-26 10:16:00,
2013-06-26 03:21:00,64.6,61.6,29.85,ENE,71,0.0,3.1,90,0.00,,---,0.00,VWS V12.08,2013-06-26 10:21:00,
2013-06-26 03:26:00,64.2,61.2,29.85,ENE,71,0.0,3.1,90,0.00,,---,0.00,VWS V12.08,2013-06-26 10:26:00,
2013-06-26 03:31:00,64.2,61.2,29.85,East,84,2.7,4.0,90,0.00,,---,0.00,VWS V12.08,2013-06-26 10:31:00,
2013-06-26 03:37:00,64.0,61.0,29.85,East,94,3.6,4.9,90,0.00,,---,0.00,VWS V12.08,2013-06-26 10:37:00,
2013-06-26 03:42:00,64.0,61.4,29.85,East,91,2.7,4.0,91,0.00,,---,0.00,VWS V12.08,2013-06-26 10:42:00,
2013-06-26 03:47:00,64.0,61.4,29.85,East,91,2.7,4.0,91,0.00,,---,0.00,VWS V12.08,2013-06-26 10:47:00,
2013-06-26 03:52:00,64.0,61.4,29.85,East,91,0.0,4.0,91,0.00,,---,0.00,VWS V12.08,2013-06-26 10:52:00,
2013-06-26 03:57:00,64.2,61.5,29.85,East,94,2.2,4.0,91,0.00,,---,0.00,VWS V12.08,2013-06-26 10:57:00,
2013-06-26 04:00:00,64.4,61.7,29.85,East,96,0.0,0.0,91,0.00,,---,0.00,VWS V12.08,2013-06-26 11:00:00,
2013-06-26 04:01:00,64.4,61.7,29.85,East,96,0.0,0.0,91,0.00,,---,0.00,VWS V12.08,2013-06-26 11:01:00,
2013-06-26 04:02:00,64.2,61.5,29.85,East,94,0.0,2.2,91,0.00,,---,0.00,VWS V12.08,2013-06-26 11:02:00,
2013-06-26 04:03:00,64.4,61.7,29.85,East,96,0.0,0.0,91,0.00,,---,0.00,VWS V12.08,2013-06-26 11:03:00,
2013-06-26 04:04:00,64.4,61.7,29.85,East,96,0.0,0.0,91,0.00,,---,0.00,VWS V12.08,2013-06-26 11:04:00,
2013-06-26 04:05:00,64.4,61.7,29.85,East,96,0.0,0.0,91,0.00,,---,0.00,VWS V12.08,2013-06-26 11:05:00,
2013-06-26 04:06:00,64.4,61.7,29.85,East,96,0.0,0.0,91,0.00,,---,0.00,VWS V12.08,2013-06-26 11:06:00,
2013-06-26 04:07:00,64.2,61.5,29.85,East,96,0.0,2.2,91,0.00,,---,0.00,VWS V12.08,2013-06-26 11:07:00,
2013-06-26 04:12:00,64.4,61.7,29.85,East,96,0.0,2.2,91,0.00,,---,0.00,VWS V12.08,2013-06-26 11:12:00,
2013-06-26 04:17:00,64.4,61.7,29.85,East,96,0.0,2.2,91,0.00,,---,0.00,VWS V12.08,2013-06-26 11:17:00,
2013-06-26 04:22:00,64.4,61.7,29.85,East,96,0.0,0.0,91,0.00,,---,0.00,VWS V12.08,2013-06-26 11:22:00,
2013-06-26 04:27:00,64.4,61.7,29.85,East,96,0.0,0.0,91,0.00,,---,0.00,VWS V12.08,2013-06-26 11:27:00,
2013-06-26 04:32:00,64.4,61.7,29.85,East,96,0.0,0.0,91,0.00,,---,0.00,VWS V12.08,2013-06-26 11:32:00,
2013-06-26 04:37:00,64.4,61.7,29.85,East,96,0.0,0.0,91,0.00,,---,0.00,VWS V12.08,2013-06-26 11:37:00,
2013-06-26 04:42:00,64.4,61.7,29.85,East,96,0.0,0.0,91,0.00,,---,0.00,VWS V12.08,2013-06-26 11:42:00,
2013-06-26 04:47:00,64.4,61.7,29.85,East,96,0.0,0.0,91,0.00,,---,0.00,VWS V12.08,2013-06-26 11:47:00,
2013-06-26 04:52:00,64.4,61.7,29.85,East,96,0.0,0.0,91,0.00,,---,0.00,VWS V12.08,2013-06-26 11:52:00,
2013-06-26 04:57:00,64.4,61.7,29.88,East,96,0.0,0.0,91,0.00,,---,0.00,VWS V12.08,2013-06-26 11:57:00,
2013-06-26 05:00:00,64.8,62.1,29.88,East,97,0.0,0.0,91,0.00,,---,0.00,VWS V12.08,2013-06-26 12:00:00,
2013-06-26 05:01:00,64.8,62.1,29.88,East,96,0.0,0.0,91,0.00,,---,0.00,VWS V12.08,2013-06-26 12:01:00,
2013-06-26 05:02:00,64.6,61.9,29.88,East,97,0.0,0.0,91,0.00,,---,0.00,VWS V12.08,2013-06-26 12:02:00,
2013-06-26 05:03:00,64.8,62.1,29.88,East,96,0.0,0.0,91,0.00,,---,0.00,VWS V12.08,2013-06-26 12:03:00,
2013-06-26 05:04:00,64.9,62.2,29.88,East,96,0.0,0.0,91,0.00,,---,0.00,VWS V12.08,2013-06-26 12:04:00,
2013-06-26 05:05:00,64.9,62.2,29.88,East,97,0.0,0.0,91,0.00,,---,0.00,VWS V12.08,2013-06-26 12:05:00,
2013-06-26 05:07:00,64.6,61.9,29.88,East,96,0.0,0.0,91,0.00,,---,0.00,VWS V12.08,2013-06-26 12:07:00,
2013-06-26 05:12:00,64.6,61.9,29.88,East,96,0.0,0.0,91,0.00,,---,0.00,VWS V12.08,2013-06-26 12:12:00,
2013-06-26 05:17:00,64.8,62.1,29.88,East,96,0.0,0.0,91,0.00,,---,0.00,VWS V12.08,2013-06-26 12:17:00,
2013-06-26 05:22:00,64.8,62.1,29.88,East,96,0.0,0.0,91,0.00,,---,0.00,VWS V12.08,2013-06-26 12:22:00,
2013-06-26 05:27:00,64.8,62.1,29.88,East,96,0.0,0.0,91,0.00,,---,0.00,VWS V12.08,2013-06-26 12:27:00,
2013-06-26 05:32:00,64.8,62.1,29.88,East,96,0.0,0.0,91,0.00,,---,0.00,VWS V12.08,2013-06-26 12:32:00,
2013-06-26 05:37:00,64.8,62.1,29.88,East,96,0.0,0.0,91,0.00,,---,0.00,VWS V12.08,2013-06-26 12:37:00,
2013-06-26 05:42:00,64.9,62.2,29.88,East,96,0.0,0.0,91,0.00,,---,0.00,VWS V12.08,2013-06-26 12:42:00,
2013-06-26 05:47:00,64.9,62.2,29.88,East,96,0.0,0.0,91,0.00,,---,0.00,VWS V12.08,2013-06-26 12:47:00,
2013-06-26 05:52:00,64.9,62.2,29.88,East,96,0.0,0.0,91,0.00,,---,0.00,VWS V12.08,2013-06-26 12:52:00,
2013-06-26 05:57:00,64.9,62.2,29.88,East,96,0.0,0.0,91,0.00,,---,0.00,VWS V12.08,2013-06-26 12:57:00,
2013-06-26 06:00:00,65.3,62.3,29.91,East,96,0.0,0.0,90,0.00,,---,0.00,VWS V12.08,2013-06-26 13:00:00,
2013-06-26 06:01:00,65.3,62.3,29.91,East,96,0.0,0.0,90,0.00,,---,0.00,VWS V12.08,2013-06-26 13:01:00,
2013-06-26 06:02:00,65.1,62.4,29.88,East,96,0.0,0.0,91,0.00,,---,0.00,VWS V12.08,2013-06-26 13:02:00,
2013-06-26 06:03:00,65.5,62.5,29.91,East,96,0.0,0.0,90,0.00,,---,0.00,VWS V12.08,2013-06-26 13:03:00,
2013-06-26 06:04:00,65.5,62.5,29.91,East,96,0.0,0.0,90,0.00,,---,0.00,VWS V12.08,2013-06-26 13:04:00,
2013-06-26 06:07:00,65.1,62.4,29.88,East,96,0.0,0.0,91,0.00,,---,0.00,VWS V12.08,2013-06-26 13:07:00,
2013-06-26 06:12:00,65.1,62.4,29.88,East,96,0.0,0.0,91,0.00,,---,0.00,VWS V12.08,2013-06-26 13:12:00,
2013-06-26 06:17:00,65.1,62.4,29.88,East,97,0.0,0.0,91,0.00,,---,0.00,VWS V12.08,2013-06-26 13:17:00,
2013-06-26 06:22:00,65.1,62.4,29.88,East,96,0.0,0.0,91,0.00,,---,0.00,VWS V12.08,2013-06-26 13:22:00,
2013-06-26 06:27:00,65.1,62.1,29.88,East,96,0.0,0.0,90,0.00,,---,0.00,VWS V12.08,2013-06-26 13:27:00,
2013-06-26 06:32:00,65.3,62.3,29.88,East,97,0.0,0.0,90,0.00,,---,0.00,VWS V12.08,2013-06-26 13:32:00,
2013-06-26 06:37:00,65.3,62.3,29.88,East,96,0.0,0.0,90,0.00,,---,0.00,VWS V12.08,2013-06-26 13:37:00,
2013-06-26 06:42:00,65.5,62.5,29.91,East,96,0.0,0.0,90,0.00,,---,0.00,VWS V12.08,2013-06-26 13:42:00,
2013-06-26 06:47:00,65.5,62.5,29.91,East,96,0.0,0.0,90,0.00,,---,0.00,VWS V12.08,2013-06-26 13:47:00,
2013-06-26 06:52:00,65.5,62.5,29.91,East,96,0.0,0.0,90,0.00,,---,0.00,VWS V12.08,2013-06-26 13:52:00,
2013-06-26 06:57:00,65.7,62.7,29.91,East,96,0.0,0.0,90,0.00,,---,0.00,VWS V12.08,2013-06-26 13:57:00,
2013-06-26 07:00:00,66.4,63.0,29.91,SE,144,3.6,3.6,89,0.00,,---,0.00,VWS V12.08,2013-06-26 14:00:00,
2013-06-26 07:01:00,66.4,63.0,29.91,SE,143,2.7,2.7,89,0.00,,---,0.00,VWS V12.08,2013-06-26 14:01:00,
2013-06-26 07:02:00,65.7,62.7,29.91,East,96,0.0,0.0,90,0.00,,---,0.00,VWS V12.08,2013-06-26 14:02:00,
2013-06-26 07:03:00,66.6,63.2,29.91,SE,144,2.2,2.7,89,0.00,,---,0.00,VWS V12.08,2013-06-26 14:03:00,
2013-06-26 07:04:00,66.6,63.2,29.91,SE,143,2.7,2.7,89,0.00,,---,0.00,VWS V12.08,2013-06-26 14:04:00,
2013-06-26 07:05:00,66.6,63.2,29.91,SE,143,0.0,3.1,89,0.00,,---,0.00,VWS V12.08,2013-06-26 14:05:00,
2013-06-26 07:07:00,65.7,62.7,29.91,East,96,0.0,0.0,90,0.00,,---,0.00,VWS V12.08,2013-06-26 14:07:00,
2013-06-26 07:12:00,65.8,62.8,29.91,East,96,0.0,0.0,90,0.00,,---,0.00,VWS V12.08,2013-06-26 14:12:00,
2013-06-26 07:17:00,65.8,62.8,29.91,East,96,0.0,0.0,90,0.00,,---,0.00,VWS V12.08,2013-06-26 14:17:00,
2013-06-26 07:22:00,66.0,63.0,29.91,East,96,0.0,0.0,90,0.00,,---,0.00,VWS V12.08,2013-06-26 14:22:00,
2013-06-26 07:27:00,66.2,62.9,29.91,East,96,0.0,0.0,89,0.00,,---,0.00,VWS V12.08,2013-06-26 14:27:00,
2013-06-26 07:32:00,66.2,62.9,29.91,East,96,0.0,0.0,89,0.00,,---,0.00,VWS V12.08,2013-06-26 14:32:00,
2013-06-26 07:37:00,66.4,63.0,29.91,SE,143,3.1,3.6,89,0.00,,---,0.00,VWS V12.08,2013-06-26 14:37:00,
2013-06-26 07:42:00,66.6,63.2,29.91,SE,144,2.2,2.7,89,0.00,,---,0.00,VWS V12.08,2013-06-26 14:42:00,
2013-06-26 07:47:00,66.6,63.2,29.91,East,101,0.0,4.0,89,0.00,,---,0.00,VWS V12.08,2013-06-26 14:47:00,
2013-06-26 07:52:00,66.7,63.4,29.91,East,101,2.7,4.9,89,0.00,,---,0.00,VWS V12.08,2013-06-26 14:52:00,
2013-06-26 07:57:00,66.9,63.6,29.91,East,95,2.7,4.9,89,0.00,,---,0.00,VWS V12.08,2013-06-26 14:57:00,
2013-06-26 08:00:00,67.8,63.8,29.91,NE,36,0.0,4.0,87,0.00,,---,0.00,VWS V12.08,2013-06-26 15:00:00,
2013-06-26 08:01:00,67.8,63.8,29.91,NE,36,0.0,0.0,87,0.00,,---,0.00,VWS V12.08,2013-06-26 15:01:00,
2013-06-26 08:02:00,67.1,63.8,29.91,East,93,0.0,3.1,89,0.00,,---,0.00,VWS V12.08,2013-06-26 15:02:00,
2013-06-26 08:03:00,67.8,63.8,29.91,NW,309,0.0,3.1,87,0.00,,---,0.00,VWS V12.08,2013-06-26 15:03:00,
2013-06-26 08:04:00,67.8,63.8,29.91,NW,309,2.2,3.1,87,0.00,,---,0.00,VWS V12.08,2013-06-26 15:04:00,
2013-06-26 08:05:00,67.8,63.5,29.91,NW,309,0.0,3.1,86,0.00,,---,0.00,VWS V12.08,2013-06-26 15:05:00,
2013-06-26 08:07:00,67.1,63.4,29.91,East,92,2.7,3.1,88,0.00,,---,0.00,VWS V12.08,2013-06-26 15:07:00,
2013-06-26 08:12:00,67.3,63.6,29.91,North,353,3.6,5.4,88,0.00,,---,0.00,VWS V12.08,2013-06-26 15:12:00,
2013-06-26 08:17:00,67.3,63.6,29.91,North,11,2.7,5.4,88,0.00,,---,0.00,VWS V12.08,2013-06-26 15:17:00,
2013-06-26 08:22:00,67.5,63.8,29.91,NNE,24,0.0,4.0,88,0.00,,---,0.00,VWS V12.08,2013-06-26 15:22:00,
2013-06-26 08:27:00,67.6,64.0,29.91,NNE,24,0.0,4.0,88,0.00,,---,0.00,VWS V12.08,2013-06-26 15:27:00,
2013-06-26 08:32:00,67.6,64.0,29.91,NE,36,0.0,4.0,88,0.00,,---,0.00,VWS V12.08,2013-06-26 15:32:00,
2013-06-26 08:37:00,67.8,63.8,29.91,NE,36,0.0,4.0,87,0.00,,---,0.00,VWS V12.08,2013-06-26 15:37:00,
2013-06-26 08:42:00,67.8,63.8,29.91,NW,309,2.2,3.1,87,0.00,,---,0.00,VWS V12.08,2013-06-26 15:42:00,
2013-06-26 08:47:00,68.0,63.7,29.91,North,353,2.7,3.1,86,0.00,,---,0.00,VWS V12.08,2013-06-26 15:47:00,
2013-06-26 08:52:00,68.0,63.7,29.91,North,357,0.0,4.0,86,0.00,,---,0.00,VWS V12.08,2013-06-26 15:52:00,
2013-06-26 08:57:00,68.0,63.7,29.91,North,3,3.6,4.0,86,0.00,,---,0.00,VWS V12.08,2013-06-26 15:57:00,
2013-06-26 09:00:00,68.0,63.7,29.91,WSW,254,2.7,4.0,86,0.00,,---,0.00,VWS V12.08,2013-06-26 16:00:00,
2013-06-26 09:01:00,68.0,63.7,29.91,NNW,334,4.0,4.0,86,0.00,,---,0.00,VWS V12.08,2013-06-26 16:01:00,
2013-06-26 09:02:00,68.0,63.7,29.91,North,10,0.0,3.1,86,0.00,,---,0.00,VWS V12.08,2013-06-26 16:02:00,
2013-06-26 09:03:00,68.0,63.7,29.91,NNW,337,4.0,4.5,86,0.00,,---,0.00,VWS V12.08,2013-06-26 16:03:00,
2013-06-26 09:04:00,68.0,63.7,29.91,NW,308,3.6,4.9,86,0.00,,---,0.00,VWS V12.08,2013-06-26 16:04:00,
2013-06-26 09:07:00,68.0,63.7,29.91,NNW,329,2.2,3.1,86,0.00,,---,0.00,VWS V12.08,2013-06-26 16:07:00,
2013-06-26 09:12:00,68.0,63.7,29.91,NNW,337,0.0,3.6,86,0.00,,---,0.00,VWS V12.08,2013-06-26 16:12:00,
2013-06-26 09:17:00,68.0,63.7,29.91,NE,34,2.2,3.6,86,0.00,,---,0.00,VWS V12.08,2013-06-26 16:17:00,
2013-06-26 09:22:00,68.0,63.7,29.91,NNW,331,3.1,3.1,86,0.00,,---,0.00,VWS V12.08,2013-06-26 16:22:00,
2013-06-26 09:27:00,68.0,63.7,29.91,West,259,3.1,3.1,86,0.00,,---,0.00,VWS V12.08,2013-06-26 16:27:00,
2013-06-26 09:32:00,68.0,63.7,29.91,WSW,239,4.0,4.0,86,0.00,,---,0.00,VWS V12.08,2013-06-26 16:32:00,
2013-06-26 09:37:00,68.0,63.7,29.91,NNW,336,3.1,4.0,86,0.00,,---,0.00,VWS V12.08,2013-06-26 16:37:00,
2013-06-26 09:42:00,68.0,63.7,29.91,NW,310,3.6,4.9,86,0.00,,---,0.00,VWS V12.08,2013-06-26 16:42:00,
2013-06-26 09:47:00,68.0,63.7,29.91,WNW,283,2.2,5.4,86,0.00,,---,0.00,VWS V12.08,2013-06-26 16:47:00,
2013-06-26 09:52:00,68.0,63.7,29.91,NW,305,6.3,6.3,86,0.00,,---,0.00,VWS V12.08,2013-06-26 16:52:00,
2013-06-26 09:57:00,68.0,63.7,29.91,NNW,348,3.1,6.3,86,0.00,,---,0.00,VWS V12.08,2013-06-26 16:57:00,
2013-06-26 10:00:00,68.0,63.7,29.91,West,266,2.2,8.1,86,0.00,,---,0.00,VWS V12.08,2013-06-26 17:00:00,
2013-06-26 10:01:00,68.0,63.7,29.91,SW,228,3.1,3.1,86,0.00,,---,0.00,VWS V12.08,2013-06-26 17:01:00,
2013-06-26 10:02:00,68.0,63.7,29.91,NNW,330,2.2,3.1,86,0.00,,---,0.00,VWS V12.08,2013-06-26 17:02:00,
2013-06-26 10:03:00,68.0,63.7,29.91,WSW,246,5.4,5.4,86,0.00,,---,0.00,VWS V12.08,2013-06-26 17:03:00,
2013-06-26 10:04:00,68.0,63.7,29.91,West,277,3.6,5.4,86,0.00,,---,0.00,VWS V12.08,2013-06-26 17:04:00,
2013-06-26 10:05:00,68.0,63.7,29.91,SSW,210,3.1,5.4,86,0.00,,---,0.00,VWS V12.08,2013-06-26 17:05:00,
2013-06-26 10:07:00,68.0,63.7,29.91,NNW,332,2.2,5.4,86,0.00,,---,0.00,VWS V12.08,2013-06-26 17:07:00,
2013-06-26 10:12:00,68.0,63.7,29.91,NNE,19,2.7,5.4,86,0.00,,---,0.00,VWS V12.08,2013-06-26 17:12:00,
2013-06-26 10:17:00,68.0,63.7,29.91,North,0,2.7,5.4,86,0.00,,---,0.00,VWS V12.08,2013-06-26 17:17:00,
2013-06-26 10:22:00,68.0,63.7,29.91,NNE,15,3.6,8.1,86,0.00,,---,0.00,VWS V12.08,2013-06-26 17:22:00,
2013-06-26 10:27:00,68.0,63.7,29.91,SSW,209,5.4,8.1,86,0.00,,---,0.00,VWS V12.08,2013-06-26 17:27:00,
2013-06-26 10:32:00,68.0,63.7,29.91,South,175,4.0,8.1,86,0.00,,---,0.00,VWS V12.08,2013-06-26 17:32:00,
2013-06-26 10:37:00,68.0,63.7,29.91,WSW,239,5.4,8.1,86,0.00,,---,0.00,VWS V12.08,2013-06-26 17:37:00,
2013-06-26 10:40:00,79.2,65.9,29.91,North,5,3.1,6.3,64,0.00,,---,0.00,VWS V12.08,2013-06-26 17:40:00,
2013-06-26 10:41:00,79.2,65.9,29.91,ESE,105,4.0,4.0,64,0.00,,---,0.00,VWS V12.08,2013-06-26 17:41:00,
2013-06-26 10:42:00,68.0,63.7,29.91,West,277,3.6,5.4,86,0.00,,---,0.00,VWS V12.08,2013-06-26 17:42:00,
2013-06-26 10:43:00,79.2,65.9,29.91,NW,323,4.9,5.4,64,0.00,,---,0.00,VWS V12.08,2013-06-26 17:43:00,
2013-06-26 10:47:00,68.0,63.7,29.91,West,277,2.7,5.8,86,0.00,,---,0.00,VWS V12.08,2013-06-26 17:47:00,
2013-06-26 10:52:00,68.0,63.7,29.91,SW,228,5.4,5.8,86,0.00,,---,0.00,VWS V12.08,2013-06-26 17:52:00,
2013-06-26 10:57:00,68.0,63.7,29.91,West,279,3.1,6.3,86,0.00,,---,0.00,VWS V12.08,2013-06-26 17:57:00,
2013-06-26 11:00:00,80.2,65.1,29.91,North,6,2.7,6.3,60,0.00,,---,0.00,VWS V12.08,2013-06-26 18:00:00,
2013-06-26 11:01:00,80.4,65.3,29.91,NNE,17,2.7,2.7,60,0.00,,---,0.00,VWS V12.08,2013-06-26 18:01:00,
2013-06-26 11:02:00,68.0,63.7,29.91,North,349,4.0,4.0,86,0.00,,---,0.00,VWS V12.08,2013-06-26 18:02:00,
2013-06-26 11:03:00,80.6,65.4,29.91,NNE,16,3.6,8.1,60,0.00,,---,0.00,VWS V12.08,2013-06-26 18:03:00,
2013-06-26 11:04:00,81.0,65.8,29.91,NNE,14,5.4,8.1,60,0.00,,---,0.00,VWS V12.08,2013-06-26 18:04:00,
2013-06-26 11:07:00,68.0,63.7,29.91,North,0,2.7,5.4,86,0.00,,---,0.00,VWS V12.08,2013-06-26 18:07:00,
2013-06-26 11:12:00,68.0,63.7,29.91,NNW,336,5.4,5.4,86,0.00,,---,0.00,VWS V12.08,2013-06-26 18:12:00,
2013-06-26 11:14:00,82.6,64.8,29.91,NW,317,4.9,8.1,55,0.00,,---,0.00,VWS V12.08,2013-06-26 18:14:00,
2013-06-26 11:15:00,82.6,64.8,29.91,NW,324,4.0,8.1,55,0.00,,---,0.00,VWS V12.08,2013-06-26 18:15:00,
2013-06-26 11:16:00,82.8,65.0,29.91,North,353,2.7,8.1,55,0.00,,---,0.00,VWS V12.08,2013-06-26 18:16:00,
2013-06-26 11:17:00,79.0,65.8,29.91,NNW,339,3.1,6.3,64,0.00,,---,0.00,VWS V12.08,2013-06-26 18:17:00,
2013-06-26 11:18:00,82.8,65.0,29.91,North,353,3.6,8.1,55,0.00,,---,0.00,VWS V12.08,2013-06-26 18:18:00,
2013-06-26 11:22:00,80.1,65.9,29.91,West,269,3.1,5.4,62,0.00,,---,0.00,VWS V12.08,2013-06-26 18:22:00,
2013-06-26 11:27:00,80.2,65.6,29.91,WNW,288,3.6,5.4,61,0.00,,---,0.00,VWS V12.08,2013-06-26 18:27:00,
2013-06-26 11:32:00,79.9,63.8,29.91,SW,232,5.4,6.3,58,0.00,,---,0.00,VWS V12.08,2013-06-26 18:32:00,
2013-06-26 11:37:00,80.1,64.5,29.91,NW,314,3.6,6.3,59,0.00,,---,0.00,VWS V12.08,2013-06-26 18:37:00,
2013-06-26 11:42:00,81.0,65.8,29.91,NNE,14,5.4,8.1,60,0.00,,---,0.00,VWS V12.08,2013-06-26 18:42:00,
2013-06-26 11:47:00,81.9,66.1,29.91,ESE,112,6.3,8.1,59,0.00,,---,0.00,VWS V12.08,2013-06-26 18:47:00,
2013-06-26 11:52:00,82.6,64.8,29.91,West,267,6.3,8.1,55,0.00,,---,0.00,VWS V12.08,2013-06-26 18:52:00,
2013-06-26 11:57:00,83.1,64.8,29.91,WNW,292,5.4,8.1,54,0.00,,---,0.00,VWS V12.08,2013-06-26 18:57:00,
2013-06-26 12:00:00,86.2,64.2,29.91,NNW,336,8.1,10.1,48,0.00,,---,0.00,VWS V12.08,2013-06-26 19:00:00,
2013-06-26 12:01:00,86.2,64.8,29.91,NW,314,5.8,7.6,49,0.00,,---,0.00,VWS V12.08,2013-06-26 19:01:00,
2013-06-26 12:02:00,83.8,65.4,29.91,East,81,3.1,6.7,54,0.00,,---,0.00,VWS V12.08,2013-06-26 19:02:00,
2013-06-26 12:03:00,86.4,62.5,29.91,North,11,5.4,8.7,45,0.00,,---,0.00,VWS V12.08,2013-06-26 19:03:00,
2013-06-26 12:04:00,86.4,63.2,29.91,NNW,342,5.4,8.7,46,0.00,,---,0.00,VWS V12.08,2013-06-26 19:04:00,
2013-06-26 12:07:00,84.2,64.7,29.91,NNW,341,3.6,6.7,52,0.00,,---,0.00,VWS V12.08,2013-06-26 19:07:00,
2013-06-26 12:12:00,84.4,62.6,29.91,SW,224,4.9,6.7,48,0.00,,---,0.00,VWS V12.08,2013-06-26 19:12:00,
2013-06-26 12:17:00,84.4,63.7,29.91,North,10,6.3,6.7,50,0.00,,---,0.00,VWS V12.08,2013-06-26 19:17:00,
2013-06-26 12:22:00,84.7,63.5,29.91,NNE,17,5.4,8.1,49,0.00,,---,0.00,VWS V12.08,2013-06-26 19:22:00,
2013-06-26 12:27:00,85.1,65.0,29.91,WNW,288,5.4,8.3,51,0.00,,---,0.00,VWS V12.08,2013-06-26 19:27:00,
2013-06-26 12:32:00,85.6,63.7,29.91,NW,316,7.6,8.3,48,0.00,,---,0.00,VWS V12.08,2013-06-26 19:32:00,
2013-06-26 12:37:00,86.0,63.4,29.91,NW,324,2.7,8.3,47,0.00,,---,0.00,VWS V12.08,2013-06-26 19:37:00,
2013-06-26 12:43:00,86.4,63.2,29.91,NNW,342,5.4,8.7,46,0.00,,---,0.00,VWS V12.08,2013-06-26 19:43:00,
2013-06-26 12:48:00,86.2,63.0,29.91,North,5,6.3,8.7,46,0.00,,---,0.00,VWS V12.08,2013-06-26 19:48:00,
2013-06-26 12:53:00,86.5,63.9,29.91,WNW,287,5.4,8.7,47,0.00,,---,0.00,VWS V12.08,2013-06-26 19:53:00,
2013-06-26 12:58:00,86.5,63.3,29.91,WNW,284,7.2,8.7,46,0.00,,---,0.00,VWS V12.08,2013-06-26 19:58:00,
2013-06-26 13:00:00,87.8,63.2,29.88,North,353,0.0,8.7,44,0.00,,---,0.00,VWS V12.08,2013-06-26 20:00:00,
2013-06-26 13:01:00,87.8,63.2,29.88,NNW,334,5.4,5.4,44,0.00,,---,0.00,VWS V12.08,2013-06-26 20:01:00,
2013-06-26 13:02:00,88.0,63.4,29.88,NNE,21,8.1,8.1,44,0.00,,---,0.00,VWS V12.08,2013-06-26 20:02:00,
2013-06-26 13:03:00,86.4,63.2,29.91,NW,322,6.3,6.7,46,0.00,,---,0.00,VWS V12.08,2013-06-26 20:03:00,
2013-06-26 13:08:00,86.7,63.5,29.91,North,4,6.3,7.6,46,0.00,,---,0.00,VWS V12.08,2013-06-26 20:08:00,
2013-06-26 13:13:00,86.7,63.5,29.91,NNW,332,2.7,8.7,46,0.00,,---,0.00,VWS V12.08,2013-06-26 20:13:00,
2013-06-26 13:18:00,87.6,63.7,29.91,NNW,327,3.1,8.7,45,0.00,,---,0.00,VWS V12.08,2013-06-26 20:18:00,
2013-06-26 13:23:00,87.6,63.7,29.91,North,353,4.9,8.7,45,0.00,,---,0.00,VWS V12.08,2013-06-26 20:23:00,
2013-06-26 13:28:00,88.0,63.4,29.88,NNW,330,3.6,8.7,44,0.00,,---,0.00,VWS V12.08,2013-06-26 20:28:00,
2013-06-26 13:33:00,87.6,63.0,29.88,NNW,339,4.0,8.7,44,0.00,,---,0.00,VWS V12.08,2013-06-26 20:33:00,
2013-06-26 13:34:00,87.6,63.0,29.88,NW,314,6.3,8.7,44,0.00,,---,0.00,VWS V12.08,2013-06-26 20:34:00,
2013-06-26 13:39:00,87.8,63.2,29.88,North,353,0.0,8.7,44,0.00,,---,0.00,VWS V12.08,2013-06-26 20:39:00,
2013-06-26 13:44:00,88.2,63.5,29.88,WNW,287,4.0,8.1,44,0.00,,---,0.00,VWS V12.08,2013-06-26 20:44:00,
2013-06-26 13:49:00,88.3,63.7,29.88,WNW,293,2.7,10.1,44,0.00,,---,0.00,VWS V12.08,2013-06-26 20:49:00,
2013-06-26 13:54:00,88.2,62.9,29.88,North,357,4.0,10.1,43,0.00,,---,0.00,VWS V12.08,2013-06-26 20:54:00,
2013-06-26 13:59:00,88.3,63.0,29.88,NNW,341,6.7,6.7,43,0.00,,---,0.00,VWS V12.08,2013-06-26 20:59:00,
2013-06-26 14:00:00,89.4,62.6,29.88,NNW,339,10.1,12.8,41,0.00,,---,0.00,VWS V12.08,2013-06-26 21:00:00,
2013-06-26 14:01:00,89.4,62.6,29.88,NW,319,12.8,12.8,41,0.00,,---,0.00,VWS V12.08,2013-06-26 21:01:00,
2013-06-26 14:02:00,89.4,62.6,29.88,NNW,329,6.3,12.8,41,0.00,,---,0.00,VWS V12.08,2013-06-26 21:02:00,
2013-06-26 14:03:00,89.4,62.6,29.88,NNW,342,5.8,12.8,41,0.00,,---,0.00,VWS V12.08,2013-06-26 21:03:00,
2013-06-26 14:04:00,88.5,63.2,29.88,WNW,299,5.4,8.7,43,0.00,,---,0.00,VWS V12.08,2013-06-26 21:04:00,
2013-06-26 14:05:00,89.2,63.2,29.88,North,357,8.7,12.8,42,0.00,,---,0.00,VWS V12.08,2013-06-26 21:05:00,
2013-06-26 14:09:00,88.7,62.7,29.88,WNW,296,6.3,10.1,42,0.00,,---,0.00,VWS V12.08,2013-06-26 21:09:00,
2013-06-26 14:14:00,89.2,63.2,29.88,NNW,345,5.8,10.1,42,0.00,,---,0.00,VWS V12.08,2013-06-26 21:14:00,
2013-06-26 14:19:00,89.2,63.2,29.88,NNW,344,4.0,4.5,42,0.00,,---,0.00,VWS V12.08,2013-06-26 21:19:00,
2013-06-26 14:24:00,89.2,63.2,29.88,WNW,294,12.3,12.3,42,0.00,,---,0.00,VWS V12.08,2013-06-26 21:24:00,
2013-06-26 14:29:00,89.6,63.5,29.88,NW,312,11.4,12.3,42,0.00,,---,0.00,VWS V12.08,2013-06-26 21:29:00,
2013-06-26 14:34:00,89.6,63.5,29.88,WNW,290,11.0,12.3,42,0.00,,---,0.00,VWS V12.08,2013-06-26 21:34:00,
2013-06-26 14:39:00,89.4,62.6,29.88,NNW,339,10.1,12.8,41,0.00,,---,0.00,VWS V12.08,2013-06-26 21:39:00,
2013-06-26 14:44:00,89.2,63.2,29.88,North,357,8.7,12.8,42,0.00,,---,0.00,VWS V12.08,2013-06-26 21:44:00,
2013-06-26 14:49:00,88.9,62.8,29.88,North,353,7.6,12.8,42,0.00,,---,0.00,VWS V12.08,2013-06-26 21:49:00,
2013-06-26 14:54:00,88.5,61.8,29.88,NW,312,10.1,12.8,41,0.00,,---,0.00,VWS V12.08,2013-06-26 21:54:00,
2013-06-26 14:59:00,88.5,61.8,29.88,NNW,332,9.2,12.8,41,0.00,,---,0.00,VWS V12.08,2013-06-26 21:59:00,
2013-06-26 15:00:00,88.5,63.2,29.88,NW,304,10.1,11.0,43,0.00,,---,0.00,VWS V12.08,2013-06-26 22:00:00,
2013-06-26 15:01:00,88.5,63.2,29.88,NNW,335,5.4,5.4,43,0.00,,---,0.00,VWS V12.08,2013-06-26 22:01:00,
2013-06-26 15:02:00,88.5,63.2,29.88,WNW,303,5.4,6.3,43,0.00,,---,0.00,VWS V12.08,2013-06-26 22:02:00,
2013-06-26 15:03:00,88.5,63.2,29.88,NW,304,7.6,7.6,43,0.00,,---,0.00,VWS V12.08,2013-06-26 22:03:00,
2013-06-26 15:04:00,88.3,62.4,29.88,NNW,328,7.6,10.5,42,0.00,,---,0.00,VWS V12.08,2013-06-26 22:04:00,
2013-06-26 15:09:00,88.2,62.2,29.88,NW,307,5.8,10.5,42,0.00,,---,0.00,VWS V12.08,2013-06-26 22:09:00,
2013-06-26 15:14:00,88.2,62.2,29.88,NW,318,8.1,11.0,42,0.00,,---,0.00,VWS V12.08,2013-06-26 22:14:00,
2013-06-26 15:19:00,88.3,62.4,29.88,NW,326,4.0,11.4,42,0.00,,---,0.00,VWS V12.08,2013-06-26 22:19:00,
2013-06-26 15:24:00,88.3,62.4,29.88,North,353,7.6,10.5,42,0.00,,---,0.00,VWS V12.08,2013-06-26 22:24:00,
2013-06-26 15:29:00,88.3,62.4,29.88,NNE,16,4.9,11.0,42,0.00,,---,0.00,VWS V12.08,2013-06-26 22:29:00,
2013-06-26 15:34:00,88.3,63.0,29.88,West,280,7.6,11.0,43,0.00,,---,0.00,VWS V12.08,2013-06-26 22:34:00,
2013-06-26 15:39:00,88.5,63.2,29.88,NW,304,10.1,11.0,43,0.00,,---,0.00,VWS V12.08,2013-06-26 22:39:00,
2013-06-26 15:44:00,88.7,62.7,29.88,NNW,332,7.6,8.7,42,0.00,,---,0.00,VWS V12.08,2013-06-26 22:44:00,
2013-06-26 15:49:00,88.7,62.7,29.88,NW,312,6.3,10.1,42,0.00,,---,0.00,VWS V12.08,2013-06-26 22:49:00,
2013-06-26 15:54:00,88.7,62.7,29.88,NW,318,10.1,10.1,42,0.00,,---,0.00,VWS V12.08,2013-06-26 22:54:00,
2013-06-26 15:59:00,88.9,62.2,29.88,WNW,290,8.1,10.1,41,0.00,,---,0.00,VWS V12.08,2013-06-26 22:59:00,
2013-06-26 16:00:00,88.9,61.5,29.85,NW,319,5.4,11.0,40,0.00,,---,0.00,VWS V12.08,2013-06-26 23:00:00,
2013-06-26 16:01:00,88.9,61.5,29.85,NW,308,6.3,6.3,40,0.00,,---,0.00,VWS V12.08,2013-06-26 23:01:00,
2013-06-26 16:02:00,88.9,61.5,29.85,NW,312,8.3,9.6,40,0.00,,---,0.00,VWS V12.08,2013-06-26 23:02:00,
2013-06-26 16:03:00,88.9,61.5,29.85,NNW,331,7.6,9.6,40,0.00,,---,0.00,VWS V12.08,2013-06-26 23:03:00,
2013-06-26 16:04:00,88.7,62.0,29.88,West,267,6.3,8.3,41,0.00,,---,0.00,VWS V12.08,2013-06-26 23:04:00,
2013-06-26 16:05:00,88.9,61.5,29.85,WNW,300,7.6,10.1,40,0.00,,---,0.00,VWS V12.08,2013-06-26 23:05:00,
2013-06-26 16:06:00,88.9,61.5,29.85,NW,311,4.0,10.1,40,0.00,,---,0.00,VWS V12.08,2013-06-26 23:06:00,
2013-06-26 16:09:00,88.9,62.8,29.85,NNW,336,8.3,8.7,42,0.00,,---,0.00,VWS V12.08,2013-06-26 23:09:00,
2013-06-26 16:14:00,89.2,62.5,29.85,WNW,282,8.7,8.7,41,0.00,,---,0.00,VWS V12.08,2013-06-26 23:14:00,
2013-06-26 16:19:00,89.4,62.6,29.85,North,353,5.4,10.1,41,0.00,,---,0.00,VWS V12.08,2013-06-26 23:19:00,
2013-06-26 16:24:00,89.8,62.3,29.85,North,0,8.1,10.5,40,0.00,,---,0.00,VWS V12.08,2013-06-26 23:24:00,
2013-06-26 16:29:00,89.8,62.3,29.85,NW,314,6.3,11.0,40,0.00,,---,0.00,VWS V12.08,2013-06-26 23:29:00,
2013-06-26 16:34:00,89.1,61.6,29.85,NW,321,4.9,11.0,40,0.00,,---,0.00,VWS V12.08,2013-06-26 23:34:00,
2013-06-26 16:39:00,88.9,61.5,29.85,NW,316,5.4,11.0,40,0.00,,---,0.00,VWS V12.08,2013-06-26 23:39:00,
2013-06-26 16:44:00,88.9,61.5,29.85,NNW,348,8.1,10.1,40,0.00,,---,0.00,VWS V12.08,2013-06-26 23:44:00,
2013-06-26 16:49:00,88.5,61.1,29.85,West,281,5.4,10.5,40,0.00,,---,0.00,VWS V12.08,2013-06-26 23:49:00,
2013-06-26 16:54:00,87.8,60.5,29.85,NNW,341,8.7,11.0,40,0.00,,---,0.00,VWS V12.08,2013-06-26 23:54:00,
2013-06-26 16:59:00,87.4,60.9,29.85,West,272,5.8,11.0,41,0.00,,---,0.00,VWS V12.08,2013-06-26 23:59:00,
2013-06-26 17:00:00,82.0,60.4,29.85,NW,312,4.9,11.4,48,0.00,,---,0.00,VWS V12.08,2013-06-27 00:00:00,
2013-06-26 17:01:00,82.0,60.4,29.85,North,357,8.1,8.1,48,0.00,,---,0.00,VWS V12.08,2013-06-27 00:01:00,
2013-06-26 17:02:00,82.0,60.4,29.85,NNW,339,6.3,8.1,48,0.00,,---,0.00,VWS V12.08,2013-06-27 00:02:00,
2013-06-26 17:03:00,82.0,60.4,29.85,NW,316,8.7,10.1,48,0.00,,---,0.00,VWS V12.08,2013-06-27 00:03:00,
2013-06-26 17:04:00,86.5,60.7,29.85,NW,321,8.3,10.1,42,0.00,,---,0.00,VWS V12.08,2013-06-27 00:04:00,
2013-06-26 17:05:00,82.0,60.4,29.85,WNW,303,4.9,10.1,48,0.00,,---,0.00,VWS V12.08,2013-06-27 00:05:00,
2013-06-26 17:09:00,86.2,60.4,29.85,NNW,329,6.3,10.1,42,0.00,,---,0.00,VWS V12.08,2013-06-27 00:09:00,
2013-06-26 17:14:00,85.1,60.1,29.85,NW,325,8.7,10.5,43,0.00,,---,0.00,VWS V12.08,2013-06-27 00:14:00,
2013-06-26 17:19:00,84.6,60.3,29.85,NW,317,8.1,10.5,44,0.00,,---,0.00,VWS V12.08,2013-06-27 00:19:00,
2013-06-26 17:20:00,81.1,60.8,29.85,NNW,328,4.0,11.0,50,0.00,,---,0.00,VWS V12.08,2013-06-27 00:20:00,
2013-06-26 17:24:00,84.6,60.3,29.85,WNW,286,8.3,10.1,44,0.00,,---,0.00,VWS V12.08,2013-06-27 00:24:00,
2013-06-26 17:29:00,82.8,59.9,29.85,NW,322,5.4,11.4,46,0.00,,---,0.00,VWS V12.08,2013-06-27 00:29:00,
2013-06-26 17:34:00,82.8,59.9,29.85,NW,321,8.3,11.4,46,0.00,,---,0.00,VWS V12.08,2013-06-27 00:34:00,
2013-06-26 17:39:00,82.0,60.4,29.85,NW,312,4.9,11.4,48,0.00,,---,0.00,VWS V12.08,2013-06-27 00:39:00,
2013-06-26 17:40:00,79.9,60.2,29.85,NW,317,8.3,11.9,51,0.00,,---,0.00,VWS V12.08,2013-06-27 00:40:00,
2013-06-26 17:44:00,82.0,60.4,29.85,NNW,329,4.0,10.1,48,0.00,,---,0.00,VWS V12.08,2013-06-27 00:44:00,
2013-06-26 17:49:00,82.0,60.4,29.85,NW,308,8.1,10.5,48,0.00,,---,0.00,VWS V12.08,2013-06-27 00:49:00,
2013-06-26 17:54:00,81.1,60.8,29.85,WNW,284,5.4,11.0,50,0.00,,---,0.00,VWS V12.08,2013-06-27 00:54:00,
2013-06-26 17:58:00,81.1,60.8,29.85,West,276,5.8,11.0,50,0.00,,---,0.00,VWS V12.08,2013-06-27 00:58:00,
2013-06-26 18:00:00,78.4,59.9,29.85,WNW,289,8.7,11.0,53,0.00,,---,0.00,VWS V12.08,2013-06-27 01:00:00,
2013-06-26 18:01:00,78.4,59.9,29.85,West,279,6.3,8.3,53,0.00,,---,0.00,VWS V12.08,2013-06-27 01:01:00,
2013-06-26 18:02:00,78.4,59.9,29.85,WNW,297,10.5,10.5,53,0.00,,---,0.00,VWS V12.08,2013-06-27 01:02:00,
2013-06-26 18:03:00,81.1,60.8,29.85,NNW,335,5.8,10.1,50,0.00,,---,0.00,VWS V12.08,2013-06-27 01:03:00,
2013-06-26 18:04:00,78.4,59.9,29.85,NNW,327,6.3,10.5,53,0.00,,---,0.00,VWS V12.08,2013-06-27 01:04:00,
2013-06-26 18:05:00,78.4,59.9,29.85,WNW,290,5.4,10.5,53,0.00,,---,0.00,VWS V12.08,2013-06-27 01:05:00,
2013-06-26 18:08:00,80.4,60.1,29.85,NW,324,7.6,10.1,50,0.00,,---,0.00,VWS V12.08,2013-06-27 01:08:00,
2013-06-26 18:13:00,80.4,60.1,29.85,North,353,8.7,11.0,50,0.00,,---,0.00,VWS V12.08,2013-06-27 01:13:00,
2013-06-26 18:18:00,79.9,60.2,29.85,NNW,331,11.9,11.9,51,0.00,,---,0.00,VWS V12.08,2013-06-27 01:18:00,
2013-06-26 18:20:00,77.9,59.9,29.85,NW,305,6.3,10.5,54,0.00,,---,0.00,VWS V12.08,2013-06-27 01:20:00,
2013-06-26 18:23:00,79.5,60.4,29.85,NW,315,5.8,10.5,52,0.00,,---,0.00,VWS V12.08,2013-06-27 01:23:00,
2013-06-26 18:28:00,79.0,59.9,29.85,NW,325,5.8,11.0,52,0.00,,---,0.00,VWS V12.08,2013-06-27 01:28:00,
2013-06-26 18:34:00,78.8,60.2,29.85,NW,323,3.6,11.0,53,0.00,,---,0.00,VWS V12.08,2013-06-27 01:34:00,
2013-06-26 18:39:00,78.8,60.2,29.85,WNW,302,8.3,11.0,53,0.00,,---,0.00,VWS V12.08,2013-06-27 01:39:00,
2013-06-26 18:40:00,76.8,60.0,29.88,WNW,301,6.3,9.6,56,0.00,,---,0.00,VWS V12.08,2013-06-27 01:40:00,
2013-06-26 18:44:00,78.4,59.9,29.85,NW,312,5.8,10.5,53,0.00,,---,0.00,VWS V12.08,2013-06-27 01:44:00,
2013-06-26 18:49:00,78.3,60.3,29.85,NNW,341,8.7,10.5,54,0.00,,---,0.00,VWS V12.08,2013-06-27 01:49:00,
2013-06-26 18:54:00,78.1,60.1,29.85,West,281,5.8,10.5,54,0.00,,---,0.00,VWS V12.08,2013-06-27 01:54:00,
2013-06-26 18:59:00,77.9,59.9,29.85,WNW,293,3.1,10.5,54,0.00,,---,0.00,VWS V12.08,2013-06-27 01:59:00,
2013-06-26 19:00:00,75.9,59.6,29.88,NNW,335,5.4,10.1,57,0.00,,---,0.00,VWS V12.08,2013-06-27 02:00:00,
2013-06-26 19:01:00,75.9,59.6,29.88,NNW,340,2.7,2.7,57,0.00,,---,0.00,VWS V12.08,2013-06-27 02:01:00,
2013-06-26 19:02:00,75.9,59.6,29.88,NW,313,5.8,6.3,57,0.00,,---,0.00,VWS V12.08,2013-06-27 02:02:00,
2013-06-26 19:03:00,75.9,59.6,29.88,NNW,332,5.4,8.3,57,0.00,,---,0.00,VWS V12.08,2013-06-27 02:03:00,
2013-06-26 19:04:00,77.7,59.8,29.85,NW,316,9.6,9.6,54,0.00,,---,0.00,VWS V12.08,2013-06-27 02:04:00,
2013-06-26 19:08:00,77.4,60.0,29.88,North,357,5.8,9.6,55,0.00,,---,0.00,VWS V12.08,2013-06-27 02:08:00,
2013-06-26 19:13:00,77.2,59.8,29.88,NNW,333,6.3,9.6,55,0.00,,---,0.00,VWS V12.08,2013-06-27 02:13:00,
2013-06-26 19:18:00,76.8,60.0,29.88,WNW,297,4.0,9.6,56,0.00,,---,0.00,VWS V12.08,2013-06-27 02:18:00,
2013-06-26 19:20:00,75.4,59.6,29.88,NW,311,3.6,8.7,58,0.00,,---,0.00,VWS V12.08,2013-06-27 02:20:00,
2013-06-26 19:23:00,76.8,60.0,29.88,NW,310,5.4,8.1,56,0.00,,---,0.00,VWS V12.08,2013-06-27 02:23:00,
2013-06-26 19:28:00,76.6,59.8,29.88,NW,318,5.8,10.1,56,0.00,,---,0.00,VWS V12.08,2013-06-27 02:28:00,
2013-06-26 19:33:00,76.5,60.1,29.88,NNW,340,3.6,10.1,57,0.00,,---,0.00,VWS V12.08,2013-06-27 02:33:00,
2013-06-26 19:38:00,76.1,59.8,29.88,WNW,303,8.3,10.1,57,0.00,,---,0.00,VWS V12.08,2013-06-27 02:38:00,
2013-06-26 19:40:00,75.0,59.7,29.88,NNW,332,5.8,8.7,59,0.00,,---,0.00,VWS V12.08,2013-06-27 02:40:00,
2013-06-26 19:43:00,75.9,59.6,29.88,WNW,290,4.0,8.3,57,0.00,,---,0.00,VWS V12.08,2013-06-27 02:43:00,
2013-06-26 19:48:00,75.6,59.8,29.88,NW,313,3.1,8.7,58,0.00,,---,0.00,VWS V12.08,2013-06-27 02:48:00,
2013-06-26 19:53:00,75.4,59.6,29.88,WNW,283,4.0,8.7,58,0.00,,---,0.00,VWS V12.08,2013-06-27 02:53:00,
2013-06-26 19:58:00,75.4,59.6,29.88,West,281,2.7,8.7,58,0.00,,---,0.00,VWS V12.08,2013-06-27 02:58:00,
2013-06-26 20:00:00,73.4,58.7,29.88,NW,314,5.4,8.7,60,0.00,,---,0.00,VWS V12.08,2013-06-27 03:00:00,
2013-06-26 20:01:00,73.4,58.7,29.88,WNW,299,5.4,5.4,60,0.00,,---,0.00,VWS V12.08,2013-06-27 03:01:00,
2013-06-26 20:02:00,73.4,58.7,29.88,NW,313,6.3,6.3,60,0.00,,---,0.00,VWS V12.08,2013-06-27 03:02:00,
2013-06-26 20:03:00,75.0,59.7,29.88,WNW,303,5.8,7.6,59,0.00,,---,0.00,VWS V12.08,2013-06-27 03:03:00,
2013-06-26 20:04:00,73.4,58.7,29.88,West,279,5.8,7.2,60,0.00,,---,0.00,VWS V12.08,2013-06-27 03:04:00,
2013-06-26 20:05:00,73.4,58.7,29.88,NW,326,4.9,7.2,60,0.00,,---,0.00,VWS V12.08,2013-06-27 03:05:00,
2013-06-26 20:08:00,75.0,59.7,29.88,NNW,339,5.4,8.7,59,0.00,,---,0.00,VWS V12.08,2013-06-27 03:08:00,
2013-06-26 20:13:00,75.0,59.7,29.88,NW,324,5.4,8.7,59,0.00,,---,0.00,VWS V12.08,2013-06-27 03:13:00,
2013-06-26 20:18:00,75.0,59.7,29.88,NNW,346,3.6,8.7,59,0.00,,---,0.00,VWS V12.08,2013-06-27 03:18:00,
2013-06-26 20:20:00,73.4,58.7,29.88,NW,321,4.0,7.2,60,0.00,,---,0.00,VWS V12.08,2013-06-27 03:20:00,
2013-06-26 20:21:00,73.4,58.7,29.88,WNW,295,3.1,5.8,60,0.00,,---,0.00,VWS V12.08,2013-06-27 03:21:00,
2013-06-26 20:22:00,73.4,58.7,29.88,NW,318,3.6,5.8,60,0.00,,---,0.00,VWS V12.08,2013-06-27 03:22:00,
2013-06-26 20:23:00,73.9,58.7,29.88,NW,308,6.3,8.7,59,0.00,,---,0.00,VWS V12.08,2013-06-27 03:23:00,
2013-06-26 20:24:00,73.4,58.7,29.88,North,353,4.9,5.8,60,0.00,,---,0.00,VWS V12.08,2013-06-27 03:24:00,
2013-06-26 20:25:00,73.4,58.7,29.88,NNW,331,2.7,5.8,60,0.00,,---,0.00,VWS V12.08,2013-06-27 03:25:00,
2013-06-26 20:26:00,73.4,58.7,29.88,NW,321,4.0,5.8,60,0.00,,---,0.00,VWS V12.08,2013-06-27 03:26:00,
2013-06-26 20:28:00,73.6,58.4,29.88,West,272,4.0,8.7,59,0.00,,---,0.00,VWS V12.08,2013-06-27 03:28:00,
2013-06-26 20:34:00,73.4,58.7,29.88,WNW,288,3.6,8.7,60,0.00,,---,0.00,VWS V12.08,2013-06-27 03:34:00,
2013-06-26 20:39:00,73.4,58.7,29.88,WNW,291,6.3,8.7,60,0.00,,---,0.00,VWS V12.08,2013-06-27 03:39:00,
2013-06-26 20:40:00,71.4,58.6,29.88,NW,312,3.1,6.3,64,0.00,,---,0.00,VWS V12.08,2013-06-27 03:40:00,
2013-06-26 20:44:00,73.4,58.7,29.88,NNW,337,3.6,7.2,60,0.00,,---,0.00,VWS V12.08,2013-06-27 03:44:00,
2013-06-26 20:49:00,73.4,58.7,29.88,NW,319,2.7,7.2,60,0.00,,---,0.00,VWS V12.08,2013-06-27 03:49:00,
2013-06-26 20:54:00,73.4,58.7,29.88,NW,307,3.6,7.2,60,0.00,,---,0.00,VWS V12.08,2013-06-27 03:54:00,
2013-06-26 20:59:00,73.4,58.7,29.88,NNW,335,3.6,7.2,60,0.00,,---,0.00,VWS V12.08,2013-06-27 03:59:00,
2013-06-26 21:00:00,70.7,58.4,29.91,NNW,329,3.6,6.3,65,0.00,,---,0.00,VWS V12.08,2013-06-27 04:00:00,
2013-06-26 21:01:00,70.7,58.4,29.91,NW,314,4.0,4.0,65,0.00,,---,0.00,VWS V12.08,2013-06-27 04:01:00,
2013-06-26 21:02:00,70.7,58.4,29.91,NW,320,3.6,5.8,65,0.00,,---,0.00,VWS V12.08,2013-06-27 04:02:00,
2013-06-26 21:03:00,73.4,58.7,29.88,NW,316,4.0,5.8,60,0.00,,---,0.00,VWS V12.08,2013-06-27 04:03:00,
2013-06-26 21:04:00,70.5,58.6,29.91,NW,319,5.8,5.8,66,0.00,,---,0.00,VWS V12.08,2013-06-27 04:04:00,
2013-06-26 21:08:00,73.4,58.7,29.88,NNW,331,2.7,6.3,60,0.00,,---,0.00,VWS V12.08,2013-06-27 04:08:00,
2013-06-26 21:13:00,71.8,58.5,29.88,NNW,329,3.6,6.3,63,0.00,,---,0.00,VWS V12.08,2013-06-27 04:13:00,
2013-06-26 21:18:00,71.4,58.6,29.88,NW,314,4.9,6.3,64,0.00,,---,0.00,VWS V12.08,2013-06-27 04:18:00,
2013-06-26 21:23:00,71.4,58.6,29.91,NW,311,2.2,6.3,64,0.00,,---,0.00,VWS V12.08,2013-06-27 04:23:00,
2013-06-26 21:28:00,71.2,58.5,29.91,NNW,343,3.6,6.3,64,0.00,,---,0.00,VWS V12.08,2013-06-27 04:28:00,
2013-06-26 21:33:00,70.9,58.5,29.91,NNW,342,2.7,6.3,65,0.00,,---,0.00,VWS V12.08,2013-06-27 04:33:00,
2013-06-26 21:38:00,70.7,58.4,29.91,NW,314,3.1,6.3,65,0.00,,---,0.00,VWS V12.08,2013-06-27 04:38:00,
2013-06-26 21:40:00,69.6,59.0,29.91,NNW,328,2.7,6.3,69,0.00,,---,0.00,VWS V12.08,2013-06-27 04:40:00,
2013-06-26 21:43:00,70.5,58.6,29.91,NW,323,4.9,5.8,66,0.00,,---,0.00,VWS V12.08,2013-06-27 04:43:00,
2013-06-26 21:48:00,70.5,58.6,29.91,WNW,300,4.0,6.3,66,0.00,,---,0.00,VWS V12.08,2013-06-27 04:48:00,
2013-06-26 21:53:00,70.3,58.5,29.91,West,280,4.0,6.7,66,0.00,,---,0.00,VWS V12.08,2013-06-27 04:53:00,
2013-06-26 21:58:00,70.2,58.7,29.91,NW,318,4.0,6.7,67,0.00,,---,0.00,VWS V12.08,2013-06-27 04:58:00,
2013-06-26 22:00:00,68.9,58.7,29.94,NW,316,2.2,6.3,70,0.00,,---,0.00,VWS V12.08,2013-06-27 05:00:00,
2013-06-26 22:03:00,70.0,58.5,29.91,WNW,293,5.4,5.8,67,0.00,,---,0.00,VWS V12.08,2013-06-27 05:03:00,
2013-06-26 22:08:00,69.8,58.8,29.91,NNW,332,6.3,6.3,68,0.00,,---,0.00,VWS V12.08,2013-06-27 05:08:00,
2013-06-26 22:13:00,69.8,59.2,29.91,WNW,285,2.7,6.3,69,0.00,,---,0.00,VWS V12.08,2013-06-27 05:13:00,
2013-06-26 22:14:00,68.5,58.8,29.94,NW,312,3.1,4.5,71,0.00,,---,0.00,VWS V12.08,2013-06-27 05:14:00,
2013-06-26 22:15:00,68.5,58.8,29.94,NW,315,3.6,4.5,71,0.00,,---,0.00,VWS V12.08,2013-06-27 05:15:00,
2013-06-26 22:16:00,68.5,58.8,29.94,NW,321,2.7,4.5,71,0.00,,---,0.00,VWS V12.08,2013-06-27 05:16:00,
2013-06-26 22:17:00,68.5,58.8,29.94,NW,321,2.7,4.5,71,0.00,,---,0.00,VWS V12.08,2013-06-27 05:17:00,
2013-06-26 22:18:00,69.6,59.0,29.91,NNW,333,3.6,6.3,69,0.00,,---,0.00,VWS V12.08,2013-06-27 05:18:00,
2013-06-26 22:20:00,68.4,58.6,29.94,NNW,339,5.4,6.7,71,0.00,,---,0.00,VWS V12.08,2013-06-27 05:20:00,
2013-06-26 22:23:00,69.4,59.2,29.91,NW,306,3.1,4.0,70,0.00,,---,0.00,VWS V12.08,2013-06-27 05:23:00,
2013-06-26 22:28:00,69.3,59.1,29.91,NNW,328,3.1,6.3,70,0.00,,---,0.00,VWS V12.08,2013-06-27 05:28:00,
2013-06-26 22:33:00,69.1,58.9,29.91,NNW,329,3.6,6.3,70,0.00,,---,0.00,VWS V12.08,2013-06-27 05:33:00,
2013-06-26 22:38:00,68.9,58.7,29.94,NW,306,4.0,6.3,70,0.00,,---,0.00,VWS V12.08,2013-06-27 05:38:00,
2013-06-26 22:40:00,68.0,59.0,29.94,NW,325,5.4,5.4,73,0.00,,---,0.00,VWS V12.08,2013-06-27 05:40:00,
2013-06-26 22:43:00,68.9,58.7,29.94,NNW,331,0.0,4.5,70,0.00,,---,0.00,VWS V12.08,2013-06-27 05:43:00,
2013-06-26 22:48:00,68.7,59.0,29.94,WNW,300,3.6,4.5,71,0.00,,---,0.00,VWS V12.08,2013-06-27 05:48:00,
2013-06-26 22:53:00,68.5,58.8,29.94,NW,312,3.1,4.5,71,0.00,,---,0.00,VWS V12.08,2013-06-27 05:53:00,
2013-06-26 22:58:00,68.5,58.8,29.94,NW,321,6.7,6.7,71,0.00,,---,0.00,VWS V12.08,2013-06-27 05:58:00,
2013-06-26 23:00:00,68.0,59.0,29.94,NNW,332,2.7,5.4,73,0.00,,---,0.00,VWS V12.08,2013-06-27 06:00:00,
2013-06-26 23:01:00,68.0,59.0,29.94,NNW,331,2.7,2.7,73,0.00,,---,0.00,VWS V12.08,2013-06-27 06:01:00,
2013-06-26 23:02:00,68.0,59.0,29.94,NNW,331,0.0,3.1,73,0.00,,---,0.00,VWS V12.08,2013-06-27 06:02:00,
2013-06-26 23:03:00,68.4,59.0,29.94,NW,311,0.0,5.4,72,0.00,,---,0.00,VWS V12.08,2013-06-27 06:03:00,
2013-06-26 23:04:00,68.0,59.0,29.94,NNW,331,0.0,3.1,73,0.00,,---,0.00,VWS V12.08,2013-06-27 06:04:00,
2013-06-26 23:05:00,68.0,59.0,29.94,NNW,331,3.1,3.1,73,0.00,,---,0.00,VWS V12.08,2013-06-27 06:05:00,
2013-06-26 23:08:00,68.2,58.8,29.94,NNW,348,2.7,5.4,72,0.00,,---,0.00,VWS V12.08,2013-06-27 06:08:00,
2013-06-26 23:13:00,68.2,59.2,29.94,WNW,289,0.0,5.4,73,0.00,,---,0.00,VWS V12.08,2013-06-27 06:13:00,
2013-06-26 23:18:00,68.0,59.0,29.94,NNW,346,2.7,5.4,73,0.00,,---,0.00,VWS V12.08,2013-06-27 06:18:00,
2013-06-26 23:20:00,68.0,59.0,29.94,NNW,330,2.2,3.1,73,0.00,,---,0.00,VWS V12.08,2013-06-27 06:20:00,
2013-06-26 23:23:00,68.0,59.0,29.94,NW,325,2.7,5.4,73,0.00,,---,0.00,VWS V12.08,2013-06-27 06:23:00,
2013-06-26 23:28:00,68.0,59.0,29.94,NNW,333,4.0,5.4,73,0.00,,---,0.00,VWS V12.08,2013-06-27 06:28:00,
2013-06-26 23:33:00,68.0,59.0,29.94,NNW,327,3.1,5.4,73,0.00,,---,0.00,VWS V12.08,2013-06-27 06:33:00,
2013-06-26 23:38:00,68.0,59.0,29.94,NW,304,2.2,5.4,73,0.00,,---,0.00,VWS V12.08,2013-06-27 06:38:00,
2013-06-26 23:40:00,68.0,59.0,29.94,North,353,2.7,3.6,73,0.00,,---,0.00,VWS V12.08,2013-06-27 06:40:00,
2013-06-26 23:43:00,68.0,59.0,29.94,NNW,331,0.0,3.1,73,0.00,,---,0.00,VWS V12.08,2013-06-27 06:43:00,
2013-06-26 23:48:00,68.0,59.0,29.94,NNW,331,0.0,3.1,73,0.00,,---,0.00,VWS V12.08,2013-06-27 06:48:00,
2013-06-26 23:53:00,68.0,59.0,29.94,NNW,331,0.0,3.1,73,0.00,,---,0.00,VWS V12.08,2013-06-27 06:53:00,
2013-06-26 23:58:00,68.0,59.0,29.94,NNW,330,2.7,3.1,73,0.00,,---,0.00,VWS V12.08,2013-06-27 06:58:00,